Time,TemperatureF,DewpointF,PressureIn,WindDirection,WindDirectionDegrees,WindSpeedMPH,WindSpeedGustMPH,Humidity,HourlyPrecipIn,Conditions,Clouds,dailyrainin,SoftwareType,DateUTC
2013-02-07 00:00:00,36.1,16.9,30.10,WSW,248,10.0,11.0,45,0.00,,,0.00,meteohub,2013-02-07 00:00:00,
2013-02-07 00:05:00,36.1,17.4,30.10,WNW,292,7.0,12.0,46,0.00,,,0.00,meteohub,2013-02-07 00:05:00,
2013-02-07 00:12:00,36.0,17.8,30.10,SSW,202,11.0,12.0,47,0.00,,,0.00,meteohub,2013-02-07 00:12:00,
2013-02-07 00:19:00,36.0,17.8,30.10,WSW,248,6.0,13.0,47,0.00,,,0.00,meteohub,2013-02-07 00:19:00,
2013-02-07 00:24:00,35.8,17.6,30.10,West,270,6.0,13.0,47,0.00,,,0.00,meteohub,2013-02-07 00:24:00,
2013-02-07 00:30:00,35.6,16.9,30.10,West,270,6.0,10.0,46,0.00,,,0.00,meteohub,2013-02-07 00:30:00,
2013-02-07 00:35:00,35.2,17.6,30.10,West,270,7.0,10.0,48,0.00,,,0.00,meteohub,2013-02-07 00:35:00,
2013-02-07 00:40:00,35.1,17.4,30.10,West,270,10.0,11.0,48,0.00,,,0.00,meteohub,2013-02-07 00:40:00,
2013-02-07 00:45:00,35.1,18.3,30.10,West,270,11.0,13.0,50,0.00,,,0.00,meteohub,2013-02-07 00:45:00,
2013-02-07 00:50:00,35.4,19.2,30.10,WSW,248,6.0,13.0,51,0.00,,,0.00,meteohub,2013-02-07 00:50:00,
2013-02-07 00:57:00,35.4,19.2,30.10,WSW,248,10.0,13.0,51,0.00,,,0.00,meteohub,2013-02-07 00:57:00,
2013-02-07 01:02:00,35.1,18.9,30.10,West,270,10.0,12.0,51,0.00,,,0.00,meteohub,2013-02-07 01:02:00,
2013-02-07 01:07:00,34.9,18.7,30.10,West,270,10.0,11.0,51,0.00,,,0.00,meteohub,2013-02-07 01:07:00,
2013-02-07 01:13:00,34.9,18.7,30.10,West,270,7.0,10.0,51,0.00,,,0.00,meteohub,2013-02-07 01:13:00,
2013-02-07 01:18:00,34.7,18.9,30.10,West,270,3.0,10.0,52,0.00,,,0.00,meteohub,2013-02-07 01:18:00,
2013-02-07 01:25:00,34.3,18.1,30.10,NW,315,5.0,10.0,51,0.00,,,0.00,meteohub,2013-02-07 01:25:00,
2013-02-07 01:31:00,34.3,18.5,30.10,WSW,248,6.0,10.0,52,0.00,,,0.00,meteohub,2013-02-07 01:31:00,
2013-02-07 01:36:00,34.5,19.2,30.10,WSW,248,9.0,10.0,53,0.00,,,0.00,meteohub,2013-02-07 01:36:00,
2013-02-07 01:41:00,34.5,18.7,30.10,WSW,248,8.0,11.0,52,0.00,,,0.00,meteohub,2013-02-07 01:41:00,
2013-02-07 01:46:00,34.5,18.7,30.10,WSW,248,6.0,11.0,52,0.00,,,0.00,meteohub,2013-02-07 01:46:00,
2013-02-07 01:51:00,34.5,18.7,30.10,West,270,8.0,11.0,52,0.00,,,0.00,meteohub,2013-02-07 01:51:00,
2013-02-07 01:57:00,34.5,18.7,30.10,WSW,248,5.0,11.0,52,0.00,,,0.00,meteohub,2013-02-07 01:57:00,
2013-02-07 02:02:00,34.3,18.5,30.10,WSW,248,8.0,11.0,52,0.00,,,0.00,meteohub,2013-02-07 02:02:00,
2013-02-07 02:07:00,34.2,18.5,30.10,West,270,6.0,11.0,52,0.00,,,0.00,meteohub,2013-02-07 02:07:00,
2013-02-07 02:12:00,34.0,18.3,30.10,WNW,292,6.0,11.0,52,0.00,,,0.00,meteohub,2013-02-07 02:12:00,
2013-02-07 02:17:00,33.8,18.1,30.10,WNW,292,5.0,9.0,52,0.00,,,0.00,meteohub,2013-02-07 02:17:00,
2013-02-07 02:22:00,33.8,18.1,30.07,West,270,7.0,8.0,52,0.00,,,0.00,meteohub,2013-02-07 02:22:00,
2013-02-07 02:30:00,33.6,18.3,30.07,WSW,248,4.0,8.0,53,0.00,,,0.00,meteohub,2013-02-07 02:30:00,
2013-02-07 02:35:00,33.6,18.3,30.07,WSW,248,6.0,8.0,53,0.00,,,0.00,meteohub,2013-02-07 02:35:00,
2013-02-07 02:40:00,33.6,18.3,30.07,SW,225,3.0,6.0,53,0.00,,,0.00,meteohub,2013-02-07 02:40:00,
2013-02-07 02:45:00,33.6,18.3,30.07,SSW,202,2.0,6.0,53,0.00,,,0.00,meteohub,2013-02-07 02:45:00,
2013-02-07 02:50:00,33.6,18.3,30.07,SW,225,4.0,6.0,53,0.00,,,0.00,meteohub,2013-02-07 02:50:00,
2013-02-07 02:57:00,33.6,18.9,30.07,SW,225,4.0,6.0,54,0.00,,,0.00,meteohub,2013-02-07 02:57:00,
2013-02-07 03:03:00,33.8,19.0,30.07,West,270,3.0,6.0,54,0.00,,,0.00,meteohub,2013-02-07 03:03:00,
2013-02-07 03:08:00,33.8,19.0,30.07,WSW,248,3.0,6.0,54,0.00,,,0.00,meteohub,2013-02-07 03:08:00,
2013-02-07 03:14:00,34.2,19.2,30.07,WSW,248,7.0,7.0,54,0.00,,,0.00,meteohub,2013-02-07 03:14:00,
2013-02-07 03:19:00,34.5,20.1,30.07,West,270,13.0,13.0,55,0.00,,,0.00,meteohub,2013-02-07 03:19:00,
2013-02-07 03:24:00,34.9,20.5,30.07,West,270,6.0,13.0,55,0.00,,,0.00,meteohub,2013-02-07 03:24:00,
2013-02-07 03:29:00,34.7,20.3,30.07,WNW,292,9.0,13.0,55,0.00,,,0.00,meteohub,2013-02-07 03:29:00,
2013-02-07 03:34:00,34.5,19.6,30.07,West,270,9.0,13.0,54,0.00,,,0.00,meteohub,2013-02-07 03:34:00,
2013-02-07 03:39:00,34.3,19.9,30.07,WNW,292,6.0,10.0,55,0.00,,,0.00,meteohub,2013-02-07 03:39:00,
2013-02-07 03:44:00,34.2,19.8,30.07,WNW,292,7.0,10.0,55,0.00,,,0.00,meteohub,2013-02-07 03:44:00,
2013-02-07 03:49:00,34.2,19.8,30.07,West,270,6.0,10.0,55,0.00,,,0.00,meteohub,2013-02-07 03:49:00,
2013-02-07 03:54:00,34.2,20.1,30.07,West,270,6.0,9.0,56,0.00,,,0.00,meteohub,2013-02-07 03:54:00,
2013-02-07 04:00:00,34.0,20.5,30.07,West,270,6.0,9.0,57,0.00,,,0.00,meteohub,2013-02-07 04:00:00,
2013-02-07 04:06:00,34.0,20.8,30.04,WNW,292,7.0,9.0,58,0.00,,,0.00,meteohub,2013-02-07 04:06:00,
2013-02-07 04:11:00,34.2,21.4,30.04,WNW,292,6.0,10.0,59,0.00,,,0.00,meteohub,2013-02-07 04:11:00,
2013-02-07 04:16:00,34.3,21.9,30.04,West,270,6.0,10.0,60,0.00,,,0.00,meteohub,2013-02-07 04:16:00,
2013-02-07 04:21:00,34.7,22.3,30.04,West,270,5.0,15.0,60,0.00,,,0.00,meteohub,2013-02-07 04:21:00,
2013-02-07 04:26:00,34.9,22.1,30.04,WNW,292,4.0,15.0,59,0.00,,,0.00,meteohub,2013-02-07 04:26:00,
2013-02-07 04:31:00,35.2,21.9,30.04,WNW,292,6.0,15.0,58,0.00,,,0.00,meteohub,2013-02-07 04:31:00,
2013-02-07 04:36:00,35.2,21.9,30.04,WSW,248,9.0,11.0,58,0.00,,,0.00,meteohub,2013-02-07 04:36:00,
2013-02-07 04:41:00,35.2,21.6,30.04,West,270,5.0,11.0,57,0.00,,,0.00,meteohub,2013-02-07 04:41:00,
2013-02-07 04:46:00,35.2,21.9,30.04,WSW,248,6.0,10.0,58,0.00,,,0.00,meteohub,2013-02-07 04:46:00,
2013-02-07 04:52:00,35.2,21.9,30.07,West,270,6.0,10.0,58,0.00,,,0.00,meteohub,2013-02-07 04:52:00,
2013-02-07 04:57:00,35.2,21.9,30.07,West,270,3.0,10.0,58,0.00,,,0.00,meteohub,2013-02-07 04:57:00,
2013-02-07 05:00:00,35.1,21.4,30.07,WNW,292,4.0,10.0,57,0.00,,,0.00,meteohub,2013-02-07 05:00:00,
2013-02-07 05:02:00,34.9,21.2,30.07,WNW,292,5.0,10.0,57,0.00,,,0.00,meteohub,2013-02-07 05:02:00,
2013-02-07 05:03:00,34.9,21.2,30.07,WNW,292,5.0,10.0,57,0.00,,,0.00,meteohub,2013-02-07 05:03:00,
2013-02-07 05:05:00,34.9,21.2,30.04,WNW,292,5.0,10.0,57,0.00,,,0.00,meteohub,2013-02-07 05:05:00,
2013-02-07 05:11:00,34.7,21.0,30.04,WSW,248,3.0,6.0,57,0.00,,,0.00,meteohub,2013-02-07 05:11:00,
2013-02-07 05:16:00,34.5,21.4,30.04,West,270,4.0,6.0,58,0.00,,,0.00,meteohub,2013-02-07 05:16:00,
2013-02-07 05:21:00,34.7,21.9,30.04,WSW,248,6.0,6.0,59,0.00,,,0.00,meteohub,2013-02-07 05:21:00,
2013-02-07 05:27:00,34.7,22.3,30.04,WSW,248,6.0,6.0,60,0.00,,,0.00,meteohub,2013-02-07 05:27:00,
2013-02-07 05:33:00,34.9,22.5,30.04,WSW,248,6.0,6.0,60,0.00,,,0.00,meteohub,2013-02-07 05:33:00,
2013-02-07 05:39:00,35.1,23.0,30.04,West,270,4.0,7.0,61,0.00,,,0.00,meteohub,2013-02-07 05:39:00,
2013-02-07 05:44:00,34.9,22.5,30.04,West,270,6.0,8.0,60,0.00,,,0.00,meteohub,2013-02-07 05:44:00,
2013-02-07 05:49:00,34.7,22.3,30.04,WNW,292,6.0,8.0,60,0.00,,,0.00,meteohub,2013-02-07 05:49:00,
2013-02-07 05:55:00,34.3,21.9,30.04,West,270,4.0,7.0,60,0.00,,,0.00,meteohub,2013-02-07 05:55:00,
2013-02-07 06:00:00,34.2,21.7,30.04,West,270,4.0,7.0,60,0.00,,,0.00,meteohub,2013-02-07 06:00:00,
2013-02-07 06:05:00,34.2,21.7,30.04,West,270,4.0,7.0,60,0.00,,,0.00,meteohub,2013-02-07 06:05:00,
2013-02-07 06:10:00,33.8,21.4,30.04,West,270,3.0,6.0,60,0.00,,,0.00,meteohub,2013-02-07 06:10:00,
2013-02-07 06:15:00,33.4,21.6,30.04,West,270,3.0,5.0,61,0.00,,,0.00,meteohub,2013-02-07 06:15:00,
2013-02-07 06:20:00,33.3,21.4,30.04,WNW,292,4.0,4.0,61,0.00,,,0.00,meteohub,2013-02-07 06:20:00,
2013-02-07 06:27:00,33.3,21.4,30.04,WNW,292,3.0,4.0,61,0.00,,,0.00,meteohub,2013-02-07 06:27:00,
2013-02-07 06:32:00,33.3,21.7,30.04,WNW,292,3.0,4.0,62,0.00,,,0.00,meteohub,2013-02-07 06:32:00,
2013-02-07 06:37:00,33.3,22.1,30.04,NW,315,2.0,4.0,63,0.00,,,0.00,meteohub,2013-02-07 06:37:00,
2013-02-07 06:42:00,33.1,22.3,30.04,NNW,338,3.0,4.0,64,0.00,,,0.00,meteohub,2013-02-07 06:42:00,
2013-02-07 06:48:00,32.9,22.1,30.04,NNW,338,4.0,4.0,64,0.00,,,0.00,meteohub,2013-02-07 06:48:00,
2013-02-07 06:57:00,32.7,21.9,30.04,NNW,338,3.0,4.0,64,0.00,,,0.00,meteohub,2013-02-07 06:57:00,
2013-02-07 07:02:00,32.5,22.5,30.04,NNW,338,3.0,4.0,66,0.00,,,0.00,meteohub,2013-02-07 07:02:00,
2013-02-07 07:07:00,32.5,22.8,30.04,NNW,338,2.0,4.0,67,0.00,,,0.00,meteohub,2013-02-07 07:07:00,
2013-02-07 07:12:00,32.4,22.6,30.04,NW,315,0.0,4.0,67,0.00,,,0.00,meteohub,2013-02-07 07:12:00,
2013-02-07 07:19:00,32.2,22.5,30.04,NW,315,0.0,4.0,67,0.00,,,0.00,meteohub,2013-02-07 07:19:00,
2013-02-07 07:25:00,32.0,22.6,30.01,WNW,292,3.0,3.0,68,0.00,,,0.00,meteohub,2013-02-07 07:25:00,
2013-02-07 07:30:00,32.0,22.6,30.01,WNW,292,4.0,4.0,68,0.00,,,0.00,meteohub,2013-02-07 07:30:00,
2013-02-07 07:35:00,32.0,22.6,30.01,West,270,4.0,4.0,68,0.00,,,0.00,meteohub,2013-02-07 07:35:00,
2013-02-07 07:40:00,32.0,23.0,30.01,WNW,292,3.0,4.0,69,0.00,,,0.00,meteohub,2013-02-07 07:40:00,
2013-02-07 07:45:00,32.0,23.4,30.01,WNW,292,3.0,4.0,70,0.00,,,0.00,meteohub,2013-02-07 07:45:00,
2013-02-07 07:52:00,31.8,23.2,30.04,WNW,292,2.0,4.0,70,0.00,,,0.00,meteohub,2013-02-07 07:52:00,
2013-02-07 07:57:00,31.8,23.2,30.04,East,90,4.0,6.0,70,0.00,,,0.00,meteohub,2013-02-07 07:57:00,
2013-02-07 08:02:00,31.8,23.5,30.04,East,90,3.0,6.0,71,0.00,,,0.00,meteohub,2013-02-07 08:02:00,
2013-02-07 08:07:00,31.8,23.9,30.04,ENE,68,0.0,6.0,72,0.00,,,0.00,meteohub,2013-02-07 08:07:00,
2013-02-07 08:12:00,32.0,23.7,30.04,ENE,68,0.0,6.0,71,0.00,,,0.00,meteohub,2013-02-07 08:12:00,
2013-02-07 08:17:00,32.0,24.1,30.04,South,180,0.0,6.0,72,0.00,,,0.00,meteohub,2013-02-07 08:17:00,
2013-02-07 08:22:00,32.0,24.1,30.04,South,180,0.0,2.0,72,0.00,,,0.00,meteohub,2013-02-07 08:22:00,
2013-02-07 08:28:00,32.0,24.4,30.04,South,180,0.0,0.0,73,0.00,,,0.00,meteohub,2013-02-07 08:28:00,
2013-02-07 08:33:00,32.0,24.4,30.04,NNE,22,0.0,0.0,73,0.00,,,0.00,meteohub,2013-02-07 08:33:00,
2013-02-07 08:38:00,32.0,24.4,30.04,NNE,22,0.0,0.0,73,0.00,,,0.00,meteohub,2013-02-07 08:38:00,
2013-02-07 08:43:00,32.0,24.6,30.04,SSW,202,3.0,0.0,74,0.00,,,0.00,meteohub,2013-02-07 08:43:00,
2013-02-07 08:48:00,32.2,24.8,30.04,SSW,202,0.0,3.0,74,0.00,,,0.00,meteohub,2013-02-07 08:48:00,
2013-02-07 08:53:00,32.5,25.2,30.04,South,180,0.0,3.0,74,0.00,,,0.00,meteohub,2013-02-07 08:53:00,
2013-02-07 08:58:00,32.5,25.2,30.04,South,180,0.0,3.0,74,0.00,,,0.00,meteohub,2013-02-07 08:58:00,
2013-02-07 09:03:00,32.7,25.3,30.04,WNW,292,2.0,3.0,74,0.00,,,0.00,meteohub,2013-02-07 09:03:00,
2013-02-07 09:08:00,32.9,25.9,30.01,West,270,4.0,4.0,75,0.00,,,0.00,meteohub,2013-02-07 09:08:00,
2013-02-07 09:13:00,33.4,26.4,30.01,WSW,248,6.0,6.0,75,0.00,,,0.00,meteohub,2013-02-07 09:13:00,
2013-02-07 09:18:00,33.8,27.1,30.01,WNW,292,4.0,6.0,76,0.00,,,0.00,meteohub,2013-02-07 09:18:00,
2013-02-07 09:23:00,33.8,27.3,30.01,West,270,5.0,6.0,77,0.00,,,0.00,meteohub,2013-02-07 09:23:00,
2013-02-07 09:28:00,34.0,27.5,30.01,WNW,292,6.0,6.0,77,0.00,,,0.00,meteohub,2013-02-07 09:28:00,
2013-02-07 09:34:00,34.3,28.2,30.01,West,270,4.0,6.0,78,0.00,,,0.00,meteohub,2013-02-07 09:34:00,
2013-02-07 09:39:00,34.5,28.4,30.01,West,270,3.0,6.0,78,0.00,,,0.00,meteohub,2013-02-07 09:39:00,
2013-02-07 09:44:00,34.9,28.8,30.01,WSW,248,4.0,6.0,78,0.00,,,0.00,meteohub,2013-02-07 09:44:00,
2013-02-07 09:49:00,35.1,28.9,30.01,SW,225,0.0,6.0,78,0.00,,,0.00,meteohub,2013-02-07 09:49:00,
2013-02-07 09:54:00,35.1,28.9,30.01,WSW,248,0.0,6.0,78,0.00,,,0.00,meteohub,2013-02-07 09:54:00,
2013-02-07 09:59:00,35.2,28.8,30.01,WSW,248,1.0,5.0,77,0.00,,,0.00,meteohub,2013-02-07 09:59:00,
2013-02-07 10:04:00,35.4,28.9,30.04,SSW,202,0.0,4.0,77,0.00,,,0.00,meteohub,2013-02-07 10:04:00,
2013-02-07 10:09:00,35.4,28.9,30.04,WSW,248,0.0,3.0,77,0.00,,,0.00,meteohub,2013-02-07 10:09:00,
2013-02-07 10:14:00,35.4,28.9,30.04,WSW,248,0.0,4.0,77,0.00,,,0.00,meteohub,2013-02-07 10:14:00,
2013-02-07 10:20:00,35.6,28.8,30.04,West,270,2.0,4.0,76,0.00,,,0.00,meteohub,2013-02-07 10:20:00,
2013-02-07 10:25:00,35.6,28.8,30.04,West,270,2.0,4.0,76,0.00,,,0.00,meteohub,2013-02-07 10:25:00,
2013-02-07 10:30:00,35.6,28.8,30.04,WSW,248,3.0,4.0,76,0.00,,,0.00,meteohub,2013-02-07 10:30:00,
2013-02-07 10:35:00,36.0,29.1,30.04,ESE,112,4.0,4.0,76,0.00,,,0.00,meteohub,2013-02-07 10:35:00,
2013-02-07 10:40:00,36.3,29.5,30.04,SE,135,3.0,4.0,76,0.00,,,0.00,meteohub,2013-02-07 10:40:00,
2013-02-07 10:46:00,36.3,29.5,30.04,South,180,0.0,4.0,76,0.00,,,0.00,meteohub,2013-02-07 10:46:00,
2013-02-07 10:51:00,36.5,29.7,30.04,WSW,248,0.0,4.0,76,0.00,,,0.00,meteohub,2013-02-07 10:51:00,
2013-02-07 10:56:00,36.7,29.8,30.04,WSW,248,0.0,3.0,76,0.00,,,0.00,meteohub,2013-02-07 10:56:00,
2013-02-07 11:02:00,36.9,30.0,30.04,SSW,202,3.0,3.0,76,0.00,,,0.00,meteohub,2013-02-07 11:02:00,
2013-02-07 11:07:00,37.0,30.2,30.01,SW,225,5.0,6.0,76,0.00,,,0.00,meteohub,2013-02-07 11:07:00,
2013-02-07 11:12:00,37.2,30.4,30.01,West,270,4.0,6.0,76,0.00,,,0.00,meteohub,2013-02-07 11:12:00,
2013-02-07 11:17:00,37.4,30.2,30.01,WSW,248,3.0,6.0,75,0.00,,,0.00,meteohub,2013-02-07 11:17:00,
2013-02-07 11:22:00,37.6,30.4,30.01,WSW,248,2.0,5.0,75,0.00,,,0.00,meteohub,2013-02-07 11:22:00,
2013-02-07 11:27:00,37.8,30.6,30.01,West,270,5.0,5.0,75,0.00,,,0.00,meteohub,2013-02-07 11:27:00,
2013-02-07 11:32:00,37.9,30.4,30.01,WSW,248,4.0,5.0,74,0.00,,,0.00,meteohub,2013-02-07 11:32:00,
2013-02-07 11:37:00,37.9,29.7,30.01,West,270,2.0,6.0,72,0.00,,,0.00,meteohub,2013-02-07 11:37:00,
2013-02-07 11:42:00,37.9,29.7,30.01,WNW,292,3.0,6.0,72,0.00,,,0.00,meteohub,2013-02-07 11:42:00,
2013-02-07 11:47:00,37.9,29.5,30.01,WNW,292,4.0,6.0,71,0.00,,,0.00,meteohub,2013-02-07 11:47:00,
2013-02-07 11:52:00,37.9,29.5,30.01,West,270,2.0,6.0,71,0.00,,,0.00,meteohub,2013-02-07 11:52:00,
2013-02-07 11:58:00,37.8,29.3,30.01,West,270,3.0,6.0,71,0.00,,,0.00,meteohub,2013-02-07 11:58:00,
2013-02-07 12:06:00,37.9,29.5,30.01,WSW,248,4.0,6.0,71,0.00,,,0.00,meteohub,2013-02-07 12:06:00,
2013-02-07 12:11:00,38.1,29.3,30.01,West,270,0.0,5.0,70,0.00,,,0.00,meteohub,2013-02-07 12:11:00,
2013-02-07 12:16:00,38.1,28.9,30.01,WNW,292,2.0,4.0,69,0.00,,,0.00,meteohub,2013-02-07 12:16:00,
2013-02-07 12:21:00,38.1,28.9,30.01,WNW,292,0.0,4.0,69,0.00,,,0.00,meteohub,2013-02-07 12:21:00,
2013-02-07 12:27:00,38.3,29.1,30.01,WNW,292,3.0,4.0,69,0.00,,,0.00,meteohub,2013-02-07 12:27:00,
2013-02-07 12:32:00,38.1,28.6,30.01,WNW,292,2.0,4.0,68,0.00,,,0.00,meteohub,2013-02-07 12:32:00,
2013-02-07 12:38:00,38.3,28.8,30.01,WNW,292,0.0,4.0,68,0.00,,,0.00,meteohub,2013-02-07 12:38:00,
2013-02-07 12:43:00,38.5,28.9,30.01,WNW,292,0.0,3.0,68,0.00,,,0.00,meteohub,2013-02-07 12:43:00,
2013-02-07 12:48:00,38.5,28.6,30.01,West,270,0.0,3.0,67,0.00,,,0.00,meteohub,2013-02-07 12:48:00,
2013-02-07 12:53:00,38.5,28.6,30.01,WNW,292,0.0,3.0,67,0.00,,,0.00,meteohub,2013-02-07 12:53:00,
2013-02-07 12:58:00,38.7,28.8,30.01,WNW,292,0.0,3.0,67,0.00,,,0.00,meteohub,2013-02-07 12:58:00,
2013-02-07 13:03:00,38.8,28.9,30.01,West,270,4.0,4.0,67,0.00,,,0.00,meteohub,2013-02-07 13:03:00,
2013-02-07 13:08:00,38.8,28.4,30.01,West,270,3.0,4.0,66,0.00,,,0.00,meteohub,2013-02-07 13:08:00,
2013-02-07 13:13:00,39.0,28.6,30.01,WSW,248,3.0,4.0,66,0.00,,,0.00,meteohub,2013-02-07 13:13:00,
2013-02-07 13:18:00,39.0,28.2,30.01,WSW,248,3.0,4.0,65,0.00,,,0.00,meteohub,2013-02-07 13:18:00,
2013-02-07 13:23:00,39.0,27.5,30.01,West,270,3.0,4.0,63,0.00,,,0.00,meteohub,2013-02-07 13:23:00,
2013-02-07 13:29:00,39.2,27.3,30.01,West,270,0.0,5.0,62,0.00,,,0.00,meteohub,2013-02-07 13:29:00,
2013-02-07 13:34:00,39.2,27.3,30.01,West,270,3.0,5.0,62,0.00,,,0.00,meteohub,2013-02-07 13:34:00,
2013-02-07 13:39:00,39.2,27.0,30.01,WSW,248,3.0,5.0,61,0.00,,,0.00,meteohub,2013-02-07 13:39:00,
2013-02-07 13:44:00,39.0,26.8,30.01,West,270,2.0,4.0,61,0.00,,,0.00,meteohub,2013-02-07 13:44:00,
2013-02-07 13:49:00,39.2,26.6,30.01,WSW,248,5.0,5.0,60,0.00,,,0.00,meteohub,2013-02-07 13:49:00,
2013-02-07 13:54:00,39.0,25.9,30.01,WNW,292,4.0,5.0,59,0.00,,,0.00,meteohub,2013-02-07 13:54:00,
2013-02-07 13:59:00,39.0,26.4,30.01,West,270,3.0,5.0,60,0.00,,,0.00,meteohub,2013-02-07 13:59:00,
2013-02-07 14:04:00,39.0,25.9,30.01,West,270,2.0,5.0,59,0.00,,,0.00,meteohub,2013-02-07 14:04:00,
2013-02-07 14:09:00,39.2,26.1,30.01,SW,225,3.0,6.0,59,0.00,,,0.00,meteohub,2013-02-07 14:09:00,
2013-02-07 14:14:00,39.0,26.4,30.01,WSW,248,4.0,6.0,60,0.00,,,0.00,meteohub,2013-02-07 14:14:00,
2013-02-07 14:19:00,38.8,26.6,30.01,WSW,248,3.0,6.0,61,0.00,,,0.00,meteohub,2013-02-07 14:19:00,
2013-02-07 14:24:00,38.8,27.0,30.01,WNW,292,4.0,4.0,62,0.00,,,0.00,meteohub,2013-02-07 14:24:00,
2013-02-07 14:30:00,38.7,26.4,30.01,West,270,5.0,5.0,61,0.00,,,0.00,meteohub,2013-02-07 14:30:00,
2013-02-07 14:35:00,38.8,27.0,30.01,West,270,3.0,5.0,62,0.00,,,0.00,meteohub,2013-02-07 14:35:00,
2013-02-07 14:40:00,38.8,27.0,30.01,West,270,2.0,5.0,62,0.00,,,0.00,meteohub,2013-02-07 14:40:00,
2013-02-07 14:45:00,39.0,27.1,30.01,West,270,2.0,5.0,62,0.00,,,0.00,meteohub,2013-02-07 14:45:00,
2013-02-07 14:50:00,39.0,27.1,30.01,WNW,292,4.0,5.0,62,0.00,,,0.00,meteohub,2013-02-07 14:50:00,
2013-02-07 14:55:00,39.0,27.1,30.01,WNW,292,4.0,5.0,62,0.00,,,0.00,meteohub,2013-02-07 14:55:00,
2013-02-07 15:00:00,39.0,27.1,30.01,NW,315,4.0,5.0,62,0.00,,,0.00,meteohub,2013-02-07 15:00:00,
2013-02-07 15:05:00,39.0,26.8,30.01,NW,315,3.0,6.0,61,0.00,,,0.00,meteohub,2013-02-07 15:05:00,
2013-02-07 15:10:00,39.0,26.8,30.01,WNW,292,5.0,6.0,61,0.00,,,0.00,meteohub,2013-02-07 15:10:00,
2013-02-07 15:15:00,39.0,26.8,30.01,NW,315,4.0,6.0,61,0.00,,,0.00,meteohub,2013-02-07 15:15:00,
2013-02-07 15:20:00,38.8,26.6,30.01,NW,315,4.0,6.0,61,0.00,,,0.00,meteohub,2013-02-07 15:20:00,
2013-02-07 15:25:00,38.8,26.6,30.01,NW,315,2.0,6.0,61,0.00,,,0.00,meteohub,2013-02-07 15:25:00,
2013-02-07 15:30:00,38.8,27.0,30.01,NW,315,2.0,5.0,62,0.00,,,0.00,meteohub,2013-02-07 15:30:00,
2013-02-07 15:35:00,38.8,27.0,30.01,NW,315,3.0,5.0,62,0.00,,,0.00,meteohub,2013-02-07 15:35:00,
2013-02-07 15:41:00,38.8,27.0,30.01,WNW,292,5.0,6.0,62,0.00,,,0.00,meteohub,2013-02-07 15:41:00,
2013-02-07 15:46:00,38.8,27.0,30.01,WNW,292,4.0,6.0,62,0.00,,,0.00,meteohub,2013-02-07 15:46:00,
2013-02-07 15:51:00,38.7,26.8,30.01,NW,315,0.0,6.0,62,0.00,,,0.00,meteohub,2013-02-07 15:51:00,
2013-02-07 15:56:00,38.7,26.8,30.01,West,270,4.0,6.0,62,0.00,,,0.00,meteohub,2013-02-07 15:56:00,
2013-02-07 16:01:00,38.5,26.6,30.01,WNW,292,5.0,5.0,62,0.00,,,0.00,meteohub,2013-02-07 16:01:00,
2013-02-07 16:06:00,38.5,26.6,30.01,WNW,292,5.0,6.0,62,0.00,,,0.00,meteohub,2013-02-07 16:06:00,
2013-02-07 16:11:00,38.5,26.6,30.01,WNW,292,3.0,6.0,62,0.00,,,0.00,meteohub,2013-02-07 16:11:00,
2013-02-07 16:16:00,38.3,26.4,30.01,WNW,292,5.0,6.0,62,0.00,,,0.00,meteohub,2013-02-07 16:16:00,
2013-02-07 16:21:00,38.1,26.6,30.01,WNW,292,5.0,6.0,63,0.00,,,0.00,meteohub,2013-02-07 16:21:00,
2013-02-07 16:26:00,37.9,26.4,30.01,WNW,292,4.0,6.0,63,0.00,,,0.00,meteohub,2013-02-07 16:26:00,
2013-02-07 16:31:00,37.9,26.4,30.01,West,270,4.0,6.0,63,0.00,,,0.00,meteohub,2013-02-07 16:31:00,
2013-02-07 16:36:00,37.8,26.8,30.04,West,270,2.0,6.0,64,0.00,,,0.00,meteohub,2013-02-07 16:36:00,
2013-02-07 16:41:00,37.6,26.6,30.04,WNW,292,3.0,5.0,64,0.00,,,0.00,meteohub,2013-02-07 16:41:00,
2013-02-07 16:46:00,37.4,26.4,30.04,WNW,292,4.0,4.0,64,0.00,,,0.00,meteohub,2013-02-07 16:46:00,
2013-02-07 16:51:00,37.2,26.6,30.01,West,270,2.0,4.0,65,0.00,,,0.00,meteohub,2013-02-07 16:51:00,
2013-02-07 16:56:00,37.0,26.4,30.01,West,270,4.0,4.0,65,0.00,,,0.00,meteohub,2013-02-07 16:56:00,
2013-02-07 17:01:00,36.9,26.2,30.01,West,270,2.0,4.0,65,0.00,,,0.00,meteohub,2013-02-07 17:01:00,
2013-02-07 17:07:00,36.7,26.1,30.04,West,270,4.0,4.0,65,0.00,,,0.00,meteohub,2013-02-07 17:07:00,
2013-02-07 17:12:00,36.7,26.4,30.04,WNW,292,6.0,6.0,66,0.00,,,0.00,meteohub,2013-02-07 17:12:00,
2013-02-07 17:17:00,36.5,27.0,30.04,WNW,292,5.0,6.0,68,0.00,,,0.00,meteohub,2013-02-07 17:17:00,
2013-02-07 17:22:00,36.5,27.7,30.04,WNW,292,4.0,6.0,70,0.00,,,0.00,meteohub,2013-02-07 17:22:00,
2013-02-07 17:27:00,36.5,28.0,30.04,NW,315,4.0,6.0,71,0.00,,,0.00,meteohub,2013-02-07 17:27:00,
2013-02-07 17:32:00,36.5,28.0,30.04,WNW,292,5.0,6.0,71,0.00,,,0.00,meteohub,2013-02-07 17:32:00,
2013-02-07 17:37:00,36.3,27.9,30.04,WNW,292,4.0,6.0,71,0.00,,,0.00,meteohub,2013-02-07 17:37:00,
2013-02-07 17:42:00,36.3,27.9,30.04,West,270,4.0,6.0,71,0.00,,,0.00,meteohub,2013-02-07 17:42:00,
2013-02-07 17:47:00,36.3,27.9,30.04,WSW,248,3.0,6.0,71,0.00,,,0.00,meteohub,2013-02-07 17:47:00,
2013-02-07 17:52:00,36.1,27.7,30.04,West,270,3.0,6.0,71,0.00,,,0.00,meteohub,2013-02-07 17:52:00,
2013-02-07 17:57:00,36.1,27.7,30.04,West,270,4.0,5.0,71,0.00,,,0.00,meteohub,2013-02-07 17:57:00,
2013-02-07 18:02:00,36.1,27.7,30.04,NW,315,4.0,5.0,71,0.00,,,0.00,meteohub,2013-02-07 18:02:00,
2013-02-07 18:07:00,36.0,27.5,30.04,WNW,292,4.0,5.0,71,0.00,,,0.00,meteohub,2013-02-07 18:07:00,
2013-02-07 18:12:00,36.0,27.9,30.04,WNW,292,4.0,5.0,72,0.00,,,0.00,meteohub,2013-02-07 18:12:00,
2013-02-07 18:17:00,36.0,27.9,30.04,NW,315,3.0,5.0,72,0.00,,,0.00,meteohub,2013-02-07 18:17:00,
2013-02-07 18:22:00,36.0,28.2,30.04,WNW,292,2.0,5.0,73,0.00,,,0.00,meteohub,2013-02-07 18:22:00,
2013-02-07 18:27:00,36.0,28.2,30.04,WNW,292,3.0,5.0,73,0.00,,,0.00,meteohub,2013-02-07 18:27:00,
2013-02-07 18:33:00,35.8,28.0,30.04,WNW,292,0.0,5.0,73,0.00,,,0.00,meteohub,2013-02-07 18:33:00,
2013-02-07 18:38:00,35.8,28.0,30.04,West,270,0.0,5.0,73,0.00,,,0.00,meteohub,2013-02-07 18:38:00,
2013-02-07 18:43:00,35.8,28.0,30.04,WSW,248,0.0,3.0,73,0.00,,,0.00,meteohub,2013-02-07 18:43:00,
2013-02-07 18:48:00,35.6,27.9,30.04,West,270,0.0,0.0,73,0.00,,,0.00,meteohub,2013-02-07 18:48:00,
2013-02-07 18:53:00,35.6,27.9,30.04,West,270,2.0,0.0,73,0.00,,,0.00,meteohub,2013-02-07 18:53:00,
2013-02-07 18:59:00,35.8,28.0,30.04,WNW,292,3.0,3.0,73,0.00,,,0.00,meteohub,2013-02-07 18:59:00,
2013-02-07 19:04:00,35.6,27.9,30.04,WNW,292,3.0,4.0,73,0.00,,,0.00,meteohub,2013-02-07 19:04:00,
2013-02-07 19:09:00,35.6,27.9,30.04,WNW,292,0.0,4.0,73,0.00,,,0.00,meteohub,2013-02-07 19:09:00,
2013-02-07 19:14:00,35.6,28.2,30.04,WNW,292,2.0,4.0,74,0.00,,,0.00,meteohub,2013-02-07 19:14:00,
2013-02-07 19:19:00,35.6,28.2,30.04,WNW,292,0.0,3.0,74,0.00,,,0.00,meteohub,2013-02-07 19:19:00,
2013-02-07 19:24:00,35.6,28.2,30.04,West,270,0.0,3.0,74,0.00,,,0.00,meteohub,2013-02-07 19:24:00,
2013-02-07 19:29:00,35.6,28.2,30.04,West,270,0.0,3.0,74,0.00,,,0.00,meteohub,2013-02-07 19:29:00,
2013-02-07 19:34:00,35.6,28.2,30.04,West,270,0.0,0.0,74,0.00,,,0.00,meteohub,2013-02-07 19:34:00,
2013-02-07 19:39:00,35.6,28.2,30.04,West,270,0.0,0.0,74,0.00,,,0.00,meteohub,2013-02-07 19:39:00,
2013-02-07 19:44:00,35.6,28.2,30.04,WSW,248,3.0,3.0,74,0.00,,,0.00,meteohub,2013-02-07 19:44:00,
2013-02-07 19:49:00,35.8,28.4,30.04,WSW,248,3.0,3.0,74,0.00,,,0.00,meteohub,2013-02-07 19:49:00,
2013-02-07 19:54:00,35.8,28.4,30.04,WSW,248,3.0,4.0,74,0.00,,,0.00,meteohub,2013-02-07 19:54:00,
2013-02-07 19:59:00,35.8,28.4,30.04,SW,225,3.0,4.0,74,0.00,,,0.00,meteohub,2013-02-07 19:59:00,
2013-02-07 20:05:00,36.0,28.8,30.04,WSW,248,4.0,4.0,75,0.00,,,0.00,meteohub,2013-02-07 20:05:00,
2013-02-07 20:10:00,36.0,28.8,30.04,West,270,4.0,4.0,75,0.00,,,0.00,meteohub,2013-02-07 20:10:00,
2013-02-07 20:15:00,36.0,28.8,30.04,West,270,3.0,5.0,75,0.00,,,0.00,meteohub,2013-02-07 20:15:00,
2013-02-07 20:20:00,36.0,28.8,30.04,WSW,248,3.0,5.0,75,0.00,,,0.00,meteohub,2013-02-07 20:20:00,
2013-02-07 20:25:00,36.0,29.1,30.04,West,270,4.0,6.0,76,0.00,,,0.00,meteohub,2013-02-07 20:25:00,
2013-02-07 20:30:00,36.0,29.1,30.04,WSW,248,5.0,6.0,76,0.00,,,0.00,meteohub,2013-02-07 20:30:00,
2013-02-07 20:35:00,36.1,29.3,30.04,West,270,6.0,6.0,76,0.00,,,0.00,meteohub,2013-02-07 20:35:00,
2013-02-07 20:40:00,36.1,29.7,30.04,West,270,4.0,6.0,77,0.00,,,0.00,meteohub,2013-02-07 20:40:00,
2013-02-07 20:45:00,36.1,29.3,30.04,West,270,5.0,6.0,76,0.00,,,0.00,meteohub,2013-02-07 20:45:00,
2013-02-07 20:50:00,36.0,29.1,30.07,West,270,4.0,6.0,76,0.00,,,0.00,meteohub,2013-02-07 20:50:00,
2013-02-07 20:55:00,36.0,29.1,30.07,West,270,5.0,6.0,76,0.00,,,0.00,meteohub,2013-02-07 20:55:00,
2013-02-07 21:00:00,35.8,28.9,30.07,WNW,292,4.0,6.0,76,0.00,,,0.00,meteohub,2013-02-07 21:00:00,
2013-02-07 21:05:00,35.8,28.9,30.07,West,270,4.0,6.0,76,0.00,,,0.00,meteohub,2013-02-07 21:05:00,
2013-02-07 21:10:00,35.8,28.9,30.07,WNW,292,4.0,6.0,76,0.00,,,0.00,meteohub,2013-02-07 21:10:00,
2013-02-07 21:15:00,35.6,28.8,30.07,West,270,4.0,5.0,76,0.00,,,0.00,meteohub,2013-02-07 21:15:00,
2013-02-07 21:20:00,35.8,28.9,30.04,West,270,3.0,5.0,76,0.00,,,0.00,meteohub,2013-02-07 21:20:00,
2013-02-07 21:25:00,35.8,28.9,30.04,West,270,4.0,5.0,76,0.00,,,0.00,meteohub,2013-02-07 21:25:00,
2013-02-07 21:30:00,35.8,28.9,30.04,West,270,4.0,5.0,76,0.00,,,0.00,meteohub,2013-02-07 21:30:00,
2013-02-07 21:36:00,35.8,28.9,30.04,West,270,4.0,5.0,76,0.00,,,0.00,meteohub,2013-02-07 21:36:00,
2013-02-07 21:41:00,35.6,28.8,30.04,West,270,3.0,5.0,76,0.00,,,0.00,meteohub,2013-02-07 21:41:00,
2013-02-07 21:46:00,35.6,28.8,30.04,WNW,292,2.0,5.0,76,0.00,,,0.00,meteohub,2013-02-07 21:46:00,
2013-02-07 21:51:00,35.6,28.8,30.04,West,270,0.0,4.0,76,0.00,,,0.00,meteohub,2013-02-07 21:51:00,
2013-02-07 21:56:00,35.6,28.8,30.04,West,270,0.0,3.0,76,0.00,,,0.00,meteohub,2013-02-07 21:56:00,
2013-02-07 22:01:00,35.4,28.9,30.04,WNW,292,0.0,3.0,77,0.00,,,0.00,meteohub,2013-02-07 22:01:00,
2013-02-07 22:06:00,35.4,28.9,30.04,WSW,248,4.0,0.0,77,0.00,,,0.00,meteohub,2013-02-07 22:06:00,
2013-02-07 22:11:00,35.6,28.8,30.04,West,270,4.0,4.0,76,0.00,,,0.00,meteohub,2013-02-07 22:11:00,
2013-02-07 22:16:00,35.6,29.1,30.04,WNW,292,4.0,5.0,77,0.00,,,0.00,meteohub,2013-02-07 22:16:00,
2013-02-07 22:21:00,35.6,29.1,30.04,WNW,292,3.0,6.0,77,0.00,,,0.00,meteohub,2013-02-07 22:21:00,
2013-02-07 22:26:00,35.6,29.1,30.04,WNW,292,3.0,6.0,77,0.00,,,0.00,meteohub,2013-02-07 22:26:00,
2013-02-07 22:31:00,35.6,29.1,30.04,WNW,292,4.0,6.0,77,0.00,,,0.00,meteohub,2013-02-07 22:31:00,
2013-02-07 22:36:00,35.6,29.1,30.04,West,270,4.0,6.0,77,0.00,,,0.00,meteohub,2013-02-07 22:36:00,
2013-02-07 22:41:00,35.6,29.5,30.04,West,270,3.0,6.0,78,0.00,,,0.00,meteohub,2013-02-07 22:41:00,
2013-02-07 22:46:00,35.6,29.5,30.04,West,270,5.0,6.0,78,0.00,,,0.00,meteohub,2013-02-07 22:46:00,
2013-02-07 22:51:00,35.6,29.8,30.07,West,270,3.0,6.0,79,0.00,,,0.00,meteohub,2013-02-07 22:51:00,
2013-02-07 22:57:00,35.6,29.8,30.07,WNW,292,6.0,6.0,79,0.00,,,0.00,meteohub,2013-02-07 22:57:00,
2013-02-07 23:02:00,35.6,29.8,30.07,West,270,4.0,7.0,79,0.00,,,0.00,meteohub,2013-02-07 23:02:00,
2013-02-07 23:07:00,35.6,30.0,30.04,West,270,4.0,7.0,80,0.00,,,0.00,meteohub,2013-02-07 23:07:00,
2013-02-07 23:12:00,35.6,30.4,30.04,West,270,3.0,7.0,81,0.00,,,0.00,meteohub,2013-02-07 23:12:00,
2013-02-07 23:17:00,35.6,30.9,30.04,West,270,3.0,6.0,83,0.00,,,0.00,meteohub,2013-02-07 23:17:00,
2013-02-07 23:22:00,35.4,30.7,30.07,West,270,3.0,6.0,83,0.01,,,0.01,meteohub,2013-02-07 23:22:00,
2013-02-07 23:27:00,35.4,31.1,30.07,West,270,3.0,6.0,84,0.01,,,0.01,meteohub,2013-02-07 23:27:00,
2013-02-07 23:32:00,35.2,30.6,30.07,West,270,1.0,6.0,83,0.01,,,0.01,meteohub,2013-02-07 23:32:00,
2013-02-07 23:37:00,35.2,30.9,30.04,West,270,0.0,4.0,84,0.01,,,0.01,meteohub,2013-02-07 23:37:00,
2013-02-07 23:42:00,35.2,30.6,30.04,West,270,0.0,3.0,83,0.01,,,0.01,meteohub,2013-02-07 23:42:00,
2013-02-07 23:47:00,35.1,30.4,30.04,WNW,292,0.0,2.0,83,0.01,,,0.01,meteohub,2013-02-07 23:47:00,
2013-02-07 23:52:00,35.1,30.4,30.04,WNW,292,0.0,0.0,83,0.01,,,0.01,meteohub,2013-02-07 23:52:00,
2013-02-07 23:57:00,35.1,30.4,30.04,WNW,292,0.0,0.0,83,0.01,,,0.01,meteohub,2013-02-07 23:57:00,